| time (UTC) | temp F | wind direction | speed MPH | gust MPH | rain 1hr in | rain 24hr in | rain mn in | humidity % | barometer mb |
| 20260505050616 | 53 | 284 | 0.0 | 1.0 | 0.00 | 0.00 | 0.00 | 65 | 1006.2 |
| 20260505050114 | 52 | 284 | 0.0 | 1.0 | 0.00 | 0.00 | 0.00 | 65 | 1006.4 |
| 20260505041544 | 54 | 284 | 0.0 | 0.0 | 0.00 | 0.00 | 0.00 | 60 | 1005.9 |
| 20260505041041 | 55 | 284 | 0.0 | 0.0 | 0.00 | 0.00 | 0.00 | 58 | 1006.0 |
| 20260505040538 | 55 | 284 | 0.0 | 0.0 | 0.00 | 0.00 | 0.00 | 58 | 1006.0 |
| 20260505040036 | 55 | 284 | 0.0 | 0.0 | 0.00 | 0.00 | 0.00 | 57 | 1005.8 |
| 20260505035531 | 53 | 284 | 0.0 | 0.0 | 0.00 | 0.00 | 0.00 | 61 | 1005.6 |
| 20260505035028 | 53 | 284 | 0.0 | 1.0 | 0.00 | 0.00 | 0.00 | 64 | 1005.5 |
| 20260505034525 | 52 | 284 | 0.0 | 0.0 | 0.00 | 0.00 | 0.00 | 66 | 1005.5 |
| 20260505034022 | 52 | 284 | 0.0 | 0.0 | 0.00 | 0.00 | 0.00 | 66 | 1005.6 |
| 20260505033519 | 52 | 284 | 0.0 | 0.0 | 0.00 | 0.00 | 0.00 | 65 | 1005.5 |
| 20260505033017 | 52 | 284 | 0.0 | 0.0 | 0.00 | 0.00 | 0.00 | 65 | 1005.6 |
| 20260505032514 | 52 | 284 | 0.0 | 0.0 | 0.00 | 0.00 | 0.00 | 67 | 1005.5 |
| 20260505032010 | 52 | 284 | 0.0 | 0.0 | 0.00 | 0.00 | 0.00 | 64 | 1005.7 |
| 20260505031508 | 52 | 284 | 0.0 | 0.0 | 0.00 | 0.00 | 0.00 | 65 | 1005.4 |
| 20260505031004 | 51 | 284 | 0.0 | 0.0 | 0.00 | 0.00 | 0.00 | 66 | 1005.3 |
| 20260505030501 | 51 | 284 | 0.0 | 0.0 | 0.00 | 0.00 | 0.00 | 67 | 1005.4 |
| 20260505025955 | 52 | 284 | 0.0 | 0.0 | 0.00 | 0.00 | 0.00 | 65 | 1005.2 |
| 20260505025453 | 52 | 284 | 0.0 | 0.0 | 0.00 | 0.00 | 0.00 | 63 | 1005.4 |
| 20260505024952 | 52 | 284 | 0.0 | 0.0 | 0.00 | 0.00 | 0.00 | 65 | 1005.2 |
| 20260505024449 | 52 | 284 | 0.0 | 0.0 | 0.00 | 0.00 | 0.00 | 65 | 1005.3 |
| 20260505023946 | 51 | 284 | 0.0 | 0.0 | 0.00 | 0.00 | 0.00 | 65 | 1005.5 |
| 20260505023443 | 51 | 284 | 0.0 | 0.0 | 0.00 | 0.00 | 0.00 | 66 | 1005.4 |
| 20260505022940 | 51 | 284 | 0.0 | 0.0 | 0.00 | 0.00 | 0.00 | 67 | 1005.3 |
| 20260505022438 | 52 | 284 | 0.0 | 0.0 | 0.00 | 0.00 | 0.00 | 67 | 1005.5 |
| 20260505021935 | 52 | 284 | 0.0 | 0.0 | 0.00 | 0.00 | 0.00 | 65 | 1005.6 |
| 20260505021431 | 51 | 284 | 0.0 | 0.0 | 0.00 | 0.00 | 0.00 | 65 | 1005.2 |
| 20260505020927 | 51 | 284 | 0.0 | 0.0 | 0.00 | 0.00 | 0.00 | 67 | 1005.3 |
| 20260505020422 | 51 | 284 | 0.0 | 0.0 | 0.00 | 0.00 | 0.00 | 67 | 1005.4 |
| 20260505015919 | 51 | 284 | 0.0 | 0.0 | 0.00 | 0.00 | 0.00 | 68 | 1005.2 |
| 20260505015417 | 51 | 284 | 0.0 | 0.0 | 0.00 | 0.00 | 0.00 | 70 | 1005.3 |
| 20260505014914 | 52 | 284 | 0.0 | 2.0 | 0.00 | 0.00 | 0.00 | 67 | 1005.3 |
| 20260505014411 | 52 | 284 | 0.0 | 0.0 | 0.00 | 0.00 | 0.00 | 64 | 1005.4 |
| 20260505013908 | 52 | 284 | 0.0 | 0.0 | 0.00 | 0.00 | 0.00 | 63 | 1005.1 |
| 20260505013404 | 53 | 284 | 0.0 | 0.0 | 0.00 | 0.00 | 0.00 | 62 | 1005.0 |
| 20260505012903 | 53 | 284 | 0.0 | 0.0 | 0.00 | 0.00 | 0.00 | 63 | 1005.0 |
| 20260505012400 | 53 | 284 | 0.0 | 0.0 | 0.00 | 0.00 | 0.00 | 63 | 1005.0 |
| 20260505011856 | 53 | 284 | 0.0 | 0.0 | 0.00 | 0.00 | 0.00 | 62 | 1005.1 |
| 20260505011353 | 53 | 284 | 0.0 | 0.0 | 0.00 | 0.00 | 0.00 | 63 | 1005.0 |
| 20260505010849 | 53 | 284 | 0.0 | 0.0 | 0.00 | 0.00 | 0.00 | 62 | 1004.9 |
| 20260505010345 | 53 | 284 | 0.0 | 0.0 | 0.00 | 0.00 | 0.00 | 63 | 1004.8 |
| 20260505005842 | 53 | 284 | 0.0 | 0.0 | 0.00 | 0.00 | 0.00 | 62 | 1004.8 |
| 20260505005338 | 53 | 284 | 0.0 | 0.0 | 0.00 | 0.00 | 0.00 | 62 | 1004.6 |
| 20260505004836 | 53 | 284 | 0.0 | 0.0 | 0.00 | 0.00 | 0.00 | 62 | 1004.5 |
| 20260505004332 | 53 | 284 | 0.0 | 0.0 | 0.00 | 0.00 | 0.00 | 61 | 1004.8 |
| 20260505003830 | 53 | 284 | 0.0 | 0.0 | 0.00 | 0.00 | 0.00 | 61 | 1004.7 |
| 20260505003327 | 53 | 284 | 0.0 | 0.0 | 0.00 | 0.00 | 0.00 | 61 | 1004.5 |
| 20260505002822 | 53 | 284 | 0.0 | 0.0 | 0.00 | 0.00 | 0.00 | 61 | 1004.0 |
| 20260505002320 | 54 | 284 | 0.0 | 0.0 | 0.00 | 0.00 | 0.00 | 60 | 1004.2 |
| 20260505001818 | 54 | 284 | 0.0 | 0.0 | 0.00 | 0.00 | 0.00 | 59 | 1004.2 |
| 20260505001315 | 54 | 284 | 0.0 | 0.0 | 0.00 | 0.00 | 0.00 | 59 | 1004.2 |
| 20260505000812 | 55 | 284 | 0.0 | 0.0 | 0.00 | 0.00 | 0.00 | 59 | 1004.0 |
| 20260505000310 | 55 | 284 | 0.0 | 0.0 | 0.00 | 0.00 | 0.00 | 57 | 1004.0 |
| 20260504235806 | 55 | 284 | 0.0 | 0.0 | 0.00 | 0.00 | 0.00 | 57 | 1004.1 |
| 20260504235304 | 55 | 284 | 0.0 | 0.0 | 0.00 | 0.00 | 0.00 | 55 | 1003.7 |
| 20260504234800 | 56 | 284 | 0.0 | 0.0 | 0.00 | 0.00 | 0.00 | 55 | 1003.8 |
| 20260504234258 | 57 | 284 | 0.0 | 0.0 | 0.00 | 0.00 | 0.00 | 55 | 1003.8 |
| 20260504233753 | 57 | 284 | 0.0 | 0.0 | 0.00 | 0.00 | 0.00 | 53 | 1003.6 |
| 20260504233249 | 58 | 284 | 0.0 | 0.0 | 0.00 | 0.00 | 0.00 | 53 | 1003.7 |
| 20260504232746 | 59 | 284 | 0.0 | 0.0 | 0.00 | 0.00 | 0.00 | 52 | 1003.6 |
| 20260504232243 | 59 | 284 | 0.0 | 0.0 | 0.00 | 0.00 | 0.00 | 50 | 1003.5 |
| 20260504231740 | 60 | 284 | 0.0 | 0.0 | 0.00 | 0.00 | 0.00 | 48 | 1003.5 |
| 20260504231237 | 61 | 284 | 0.0 | 0.0 | 0.00 | 0.00 | 0.00 | 47 | 1003.6 |
| 20260504230732 | 62 | 284 | 0.0 | 0.0 | 0.00 | 0.00 | 0.00 | 44 | 1003.2 |
| 20260504230231 | 63 | 284 | 0.0 | 0.0 | 0.00 | 0.00 | 0.00 | 41 | 1003.1 |
| 20260504225730 | 64 | 284 | 0.0 | 1.0 | 0.00 | 0.00 | 0.00 | 41 | 1003.2 |
| 20260504225226 | 64 | 284 | 0.0 | 0.0 | 0.00 | 0.00 | 0.00 | 40 | 1003.2 |
| 20260504224723 | 65 | 284 | 0.0 | 0.0 | 0.00 | 0.00 | 0.00 | 40 | 1003.0 |
| 20260504224220 | 66 | 284 | 1.0 | 1.0 | 0.00 | 0.00 | 0.00 | 33 | 1002.9 |
| 20260504223716 | 66 | 284 | 0.0 | 2.0 | 0.00 | 0.00 | 0.00 | 35 | 1003.0 |
| 20260504223212 | 66 | 284 | 1.0 | 3.0 | 0.00 | 0.00 | 0.00 | 35 | 1003.2 |
| 20260504222709 | 66 | 284 | 0.0 | 1.0 | 0.00 | 0.00 | 0.00 | 37 | 1003.1 |
| 20260504222206 | 66 | 284 | 0.0 | 0.0 | 0.00 | 0.00 | 0.00 | 37 | 1003.1 |
| 20260504221703 | 66 | 284 | 0.0 | 0.0 | 0.00 | 0.00 | 0.00 | 35 | 1002.9 |
| 20260504221200 | 66 | 284 | 0.0 | 0.0 | 0.00 | 0.00 | 0.00 | 37 | 1003.0 |
| 20260504220656 | 67 | 284 | 0.0 | 0.0 | 0.00 | 0.00 | 0.00 | 36 | 1003.0 |
| 20260504220154 | 67 | 284 | 0.0 | 0.0 | 0.00 | 0.00 | 0.00 | 35 | 1003.1 |
| 20260504215651 | 67 | 284 | 0.0 | 2.0 | 0.00 | 0.00 | 0.00 | 33 | 1003.0 |
| 20260504215148 | 67 | 284 | 0.0 | 1.0 | 0.00 | 0.00 | 0.00 | 36 | 1003.0 |
| 20260504214643 | 67 | 284 | 0.0 | 0.0 | 0.00 | 0.00 | 0.00 | 36 | 1002.9 |
| 20260504214140 | 67 | 284 | 0.0 | 1.0 | 0.00 | 0.00 | 0.00 | 35 | 1002.9 |
| 20260504213637 | 67 | 284 | 0.0 | 0.0 | 0.00 | 0.00 | 0.00 | 36 | 1002.9 |
| 20260504213134 | 66 | 284 | 0.0 | 0.0 | 0.00 | 0.00 | 0.00 | 36 | 1002.7 |
| 20260504212630 | 67 | 284 | 0.0 | 1.0 | 0.00 | 0.00 | 0.00 | 33 | 1003.0 |
| 20260504212127 | 68 | 284 | 1.0 | 2.0 | 0.00 | 0.00 | 0.00 | 34 | 1003.2 |
| 20260504211625 | 69 | 284 | 0.0 | 1.0 | 0.00 | 0.00 | 0.00 | 32 | 1002.9 |
| 20260504211121 | 69 | 284 | 0.0 | 3.0 | 0.00 | 0.00 | 0.00 | 33 | 1003.0 |
| 20260504210619 | 69 | 284 | 2.0 | 6.0 | 0.00 | 0.00 | 0.00 | 33 | 1002.9 |
| 20260504210114 | 70 | 284 | 2.0 | 4.0 | 0.00 | 0.00 | 0.00 | 30 | 1002.9 |
| 20260504205612 | 69 | 284 | 1.0 | 1.0 | 0.00 | 0.00 | 0.00 | 31 | 1002.7 |
| 20260504205110 | 70 | 284 | 2.0 | 6.0 | 0.00 | 0.00 | 0.00 | 31 | 1002.8 |
| 20260504204608 | 68 | 284 | 1.0 | 4.0 | 0.00 | 0.00 | 0.00 | 31 | 1002.9 |
| 20260504204107 | 68 | 284 | 2.0 | 2.0 | 0.00 | 0.00 | 0.00 | 31 | 1002.8 |
| 20260504203605 | 67 | 284 | 0.0 | 2.0 | 0.00 | 0.00 | 0.00 | 34 | 1002.7 |
| 20260504203102 | 66 | 284 | 1.0 | 2.0 | 0.00 | 0.00 | 0.00 | 34 | 1003.0 |
| 20260504202557 | 67 | 284 | 2.0 | 3.0 | 0.00 | 0.00 | 0.00 | 33 | 1002.9 |
| 20260504202054 | 68 | 284 | 2.0 | 10.0 | 0.00 | 0.00 | 0.00 | 33 | 1002.9 |
| 20260504201551 | 69 | 284 | 0.0 | 2.0 | 0.00 | 0.00 | 0.00 | 32 | 1003.1 |
| 20260504201049 | 67 | 284 | 2.0 | 4.0 | 0.00 | 0.00 | 0.00 | 32 | 1003.0 |
| 20260504200545 | 69 | 284 | 0.0 | 0.0 | 0.00 | 0.00 | 0.00 | 33 | 1003.0 |
| 20260504200042 | 67 | 284 | 2.0 | 2.0 | 0.00 | 0.00 | 0.00 | 34 | 1003.2 |
| 20260504195538 | 66 | 284 | 0.0 | 4.0 | 0.00 | 0.00 | 0.00 | 35 | 1003.2 |
| 20260504195035 | 65 | 284 | 1.0 | 2.0 | 0.00 | 0.00 | 0.00 | 36 | 1003.2 |
| 20260504194531 | 67 | 284 | 3.0 | 4.0 | 0.00 | 0.00 | 0.00 | 34 | 1003.3 |
| 20260504194027 | 66 | 284 | 2.0 | 6.0 | 0.00 | 0.00 | 0.00 | 36 | 1003.2 |
| 20260504193523 | 66 | 284 | 0.0 | 4.0 | 0.00 | 0.00 | 0.00 | 36 | 1003.3 |
| 20260504193022 | 66 | 284 | 1.0 | 4.0 | 0.00 | 0.00 | 0.00 | 35 | 1003.3 |
| 20260504192520 | 67 | 284 | 7.0 | 9.0 | 0.00 | 0.00 | 0.00 | 35 | 1003.5 |
| 20260504192018 | 65 | 284 | 0.0 | 6.0 | 0.00 | 0.00 | 0.00 | 38 | 1003.2 |
| 20260504191516 | 65 | 284 | 2.0 | 6.0 | 0.00 | 0.00 | 0.00 | 37 | 1003.3 |
| 20260504191011 | 63 | 284 | 0.0 | 1.0 | 0.00 | 0.00 | 0.00 | 40 | 1003.3 |
| 20260504190508 | 64 | 284 | 0.0 | 2.0 | 0.00 | 0.00 | 0.00 | 39 | 1003.4 |
| 20260504190004 | 63 | 284 | 0.0 | 1.0 | 0.00 | 0.00 | 0.00 | 40 | 1003.5 |
| 20260504185501 | 63 | 284 | 0.0 | 4.0 | 0.00 | 0.00 | 0.00 | 41 | 1003.5 |
| 20260504184958 | 64 | 284 | 0.0 | 4.0 | 0.00 | 0.00 | 0.00 | 40 | 1003.6 |
| 20260504184453 | 64 | 284 | 1.0 | 2.0 | 0.00 | 0.00 | 0.00 | 40 | 1003.3 |
| 20260504183949 | 64 | 284 | 0.0 | 3.0 | 0.00 | 0.00 | 0.00 | 40 | 1003.5 |
| 20260504183446 | 66 | 284 | 0.0 | 4.0 | 0.00 | 0.00 | 0.00 | 39 | 1003.6 |
| 20260504182944 | 66 | 284 | 0.0 | 3.0 | 0.00 | 0.00 | 0.00 | 35 | 1003.7 |
| 20260504182440 | 65 | 284 | 2.0 | 4.0 | 0.00 | 0.00 | 0.00 | 35 | 1003.7 |
| 20260504181938 | 62 | 284 | 0.0 | 2.0 | 0.00 | 0.00 | 0.00 | 38 | 1003.7 |
| 20260504181435 | 62 | 284 | 2.0 | 4.0 | 0.00 | 0.00 | 0.00 | 39 | 1003.6 |
| 20260504180934 | 62 | 284 | 0.0 | 1.0 | 0.00 | 0.00 | 0.00 | 40 | 1003.8 |
| 20260504180432 | 62 | 284 | 2.0 | 4.0 | 0.00 | 0.00 | 0.00 | 39 | 1003.7 |
| 20260504175930 | 62 | 284 | 4.0 | 9.0 | 0.00 | 0.00 | 0.00 | 39 | 1003.9 |
| 20260504175427 | 62 | 284 | 3.0 | 4.0 | 0.00 | 0.00 | 0.00 | 40 | 1003.7 |
| 20260504174924 | 62 | 284 | 0.0 | 1.0 | 0.00 | 0.00 | 0.00 | 40 | 1003.8 |
| 20260504174422 | 63 | 284 | 2.0 | 3.0 | 0.00 | 0.00 | 0.00 | 38 | 1003.7 |
| 20260504173919 | 64 | 284 | 2.0 | 2.0 | 0.00 | 0.00 | 0.00 | 37 | 1003.8 |
| 20260504173415 | 65 | 284 | 5.0 | 6.0 | 0.00 | 0.00 | 0.00 | 35 | 1003.7 |
| 20260504172913 | 62 | 284 | 0.0 | 4.0 | 0.00 | 0.00 | 0.00 | 36 | 1003.5 |
| 20260504172409 | 62 | 284 | 1.0 | 6.0 | 0.00 | 0.00 | 0.00 | 38 | 1003.6 |
| 20260504171905 | 62 | 284 | 2.0 | 3.0 | 0.00 | 0.00 | 0.00 | 38 | 1003.8 |
| 20260504171403 | 62 | 284 | 0.0 | 3.0 | 0.00 | 0.00 | 0.00 | 38 | 1003.8 |
| 20260504170859 | 62 | 284 | 1.0 | 2.0 | 0.00 | 0.00 | 0.00 | 36 | 1003.8 |
| 20260504170356 | 62 | 284 | 2.0 | 2.0 | 0.00 | 0.00 | 0.00 | 35 | 1003.6 |
| 20260504160315 | 65 | 284 | 2.0 | 7.0 | 0.00 | 0.00 | 0.00 | 34 | 1003.3 |
| 20260504150739 | 60 | 284 | 2.0 | 3.0 | 0.00 | 0.00 | 0.00 | 40 | 1004.0 |
| 20260504150236 | 59 | 284 | 1.0 | 7.0 | 0.00 | 0.00 | 0.00 | 42 | 1004.3 |
| 20260504141206 | 56 | 284 | 2.0 | 4.0 | 0.00 | 0.00 | 0.00 | 48 | 1005.1 |
| 20260504140703 | 56 | 284 | 2.0 | 6.0 | 0.00 | 0.00 | 0.00 | 48 | 1005.0 |
| 20260504140158 | 56 | 284 | 1.0 | 7.0 | 0.00 | 0.00 | 0.00 | 50 | 1004.9 |
| 20260504130626 | 51 | 284 | 0.0 | 0.0 | 0.00 | 0.00 | 0.00 | 58 | 1005.8 |
| 20260504130123 | 49 | 284 | 0.0 | 0.0 | 0.00 | 0.00 | 0.00 | 61 | 1005.8 |
| 20260504110514 | 45 | 284 | 0.0 | 0.0 | 0.00 | 0.00 | 0.00 | 66 | 1006.2 |
| 20260504100436 | 40 | 284 | 0.0 | 1.0 | 0.00 | 0.00 | 0.00 | 73 | 1005.8 |
| 20260504081829 | 37 | 284 | 0.0 | 0.0 | 0.00 | 0.00 | 0.00 | 73 | 1006.4 |
| 20260504081326 | 37 | 284 | 0.0 | 0.0 | 0.00 | 0.00 | 0.00 | 75 | 1006.4 |
| 20260504080822 | 35 | 284 | 0.0 | 3.0 | 0.00 | 0.00 | 0.00 | 76 | 1006.6 |
| 20260504080319 | 35 | 284 | 0.0 | 0.0 | 0.00 | 0.00 | 0.00 | 79 | 1006.4 |
| 20260504070241 | 33 | 284 | 0.0 | 0.0 | 0.00 | 0.00 | 0.00 | 83 | 1006.3 |
| 20260504060202 | 32 | 284 | 0.0 | 0.0 | 0.00 | 0.00 | 0.00 | 84 | 1005.9 |